Skip Page Navigation
NASA JPL Caltech
NASA Logo - Jet Propulsion Laboratory + View the NASA Portal
+ Near-Earth Object (NEO) Program
Search JPL
JPL Home Earth Solar System Stars & Galaxies Technology
JPL Solar System Dynamics
BODIES ORBITS EPHEMERIDES TOOLS PHYSICAL DATA DISCOVERY FAQ SITE MAP
JPL Small-Body Database Browser
Search: [ help ]  
162162 (1999 DB7)
Classification: Apollo [NEO, PHA]          SPK-ID: 2162162
Ephemeris | Orbit Diagram | Orbital Elements | Physical Parameters | Discovery Circumstances | Close-Approach Data ]

[ hide orbit diagram ]
Orbit Diagram
Note: Make sure you have Java enabled on your browser to see the applet. This applet is provided as a 3D orbit visualization tool. The applet was implemented using 2-body methods, and hence should not be used for determining accurate long-term trajectories (over several years or decades) or planetary encounter circumstances. For accurate long-term ephemerides, please instead use our Horizons system.
Orbit Viewer

Additional Notes: the orbits shown in the applet are color coded. The planets are white lines, and the asteroid/comet is a blue line. The bright white line indicates the portion of the orbit that is above the ecliptic plane, and the darker portion is below the ecliptic plane. Likewise for the asteroid/comet orbit, the light blue indicates the portion above the ecliptic plane, and the dark blue the portion below the ecliptic plane.

Orbit Viewer applet originally written and kindly provided by Osamu Ajiki (AstroArts), and further modified by Ron Baalke (JPL).


Orbital Elements at Epoch 2456400.5 (2013-Apr-18.0) TDB
Reference: JPL 24 (heliocentric ecliptic J2000)
 Element Value Uncertainty (1-sigma)   Units 
e .1948381298241479 3.6281e-08  
a 1.205832772214011 4.9799e-09 AU
q .9708905699951651 4.1292e-08 AU
i 10.8402711165786 1.4407e-05 deg
node 157.6278985375423 1.0819e-05 deg
peri 29.86011382288589 2.72e-05 deg
M 223.9936197635619 4.3926e-05 deg
tp 2456583.219893207236
(2013-Oct-17.71989321)
6.0059e-05 JED
period 483.6476159445762
1.32
2.9961e-06
8.203e-09
d
yr
n .7443435843199823 4.6111e-09 deg/d
Q 1.440774974432856 5.9502e-09 AU
  Orbit Determination Parameters
   # obs. used (total)      170  
   data-arc span      4592 days (12.57 yr)  
   first obs. used      1999-02-26  
   last obs. used      2011-09-23  
   planetary ephem.      DE405  
   SB-pert. ephem.      SB405-CPV-2  
   condition code      0  
   fit RMS      .60833  
   data source      ORB  
   producer      Otto Matic  
   solution date      2013-Apr-29 15:39:38  

Additional Information
 Earth MOID = .0016899 AU 
 T_jup = 5.243 
[ show covariance matrix ]

Ephemeris | Orbit Diagram | Orbital Elements | Physical Parameters | Discovery Circumstances | Close-Approach Data ]

Physical Parameter Table
Parameter Symbol Value Units Sigma Reference Notes
absolute magnitude H 19.701 mag .8794 24 autocmod 2.5c

162162 (1999 DB7)          Discovered 1999-Feb-26 by LINEAR at Socorro (704)
Reference: 20070926/Numbers.arcLast Updated: 2007-09-30

[ show close-approach data ]
Ephemeris | Orbit Diagram | Orbital Elements | Physical Parameters | Discovery Circumstances | Close-Approach Data ]
ABOUT SSD CREDITS/AWARDS PRIVACY/COPYRIGHT GLOSSARY LINKS
FirstGov 2013-May-21 17:38 UT
(server date/time)  
NASA Home Page
Site Manager:   Donald K. Yeomans
Webmaster  Alan B. Chamberlin